sat.trackr.live / text

‹ back to catalog

STARLINK-37780

NORAD 69340 · 2026-122M

PAYLOAD ACTIVE UNKNOWN

§ Identity

Operator
Country
US
Launch date
2026-06-03
Launch site
AFWTR
Launch vehicle
Mass (kg)
RCS (m²)

Purposes: comms

External: N2YO · Heavens-Above · Gunter

§ Orbital elements

Epoch: 2026-09-19T00:44:15.316512Z

Period
93.91 min
Inclination
97.2838°
Eccentricity
0.0001519
Mean motion
15.33451461 rev/d
Perigee alt
464.5 km
Apogee alt
466.6 km
Semi-major
6,843.7 km
B*
5.4644e-4
RAAN
290.6622°
Arg perigee
101.3998°
Mean anomaly
258.7416°
Rev number
1,657

§ Raw data

STARLINK-377801 69340U 26122M   26262.03073283  .00017611  00000+0  54644-3 0  99902 69340  97.2838 290.6622 0001519 101.3998 258.7416 15.33451461 16570

JSON: /api/v1/satellites/69340 · /tle

For live sub-satellite position, see the globe view (requires WebGL).

§ Visibility from observer

Set your observer location to see the next 7 days of passes ≥ 10°. The values pass through the URL so the page stays shareable.

No JS? Fill the form by hand. The geolocation button needs JavaScript.